,,PA_Meas_PMT16A,,PR_Meas_QMR101_102,,RH_Meas_QMH101,,SR_Meas_QMS101,,TA_Meas_QMH101,,GenWind,,GenWind,
time,status,PA,status,PR,status,RH,status,SR,status,TA,status,DirAvg,status,SpdAvg,
2014-08-13, 07:03:04,VALID,917.481,VALID,0,VALID,97.7169,VALID,55.6545,VALID,17.8911,VALID,113,VALID,0.815234,
2014-08-13, 07:04:04,VALID,917.488,VALID,0,VALID,97.7322,VALID,57.6959,VALID,17.8925,VALID,113,VALID,0.389453,
2014-08-13, 07:05:04,VALID,917.488,VALID,0,VALID,97.7627,VALID,59.9522,VALID,17.8925,VALID,113,VALID,0.328906,
2014-08-13, 07:06:04,VALID,917.474,VALID,0,VALID,97.7398,VALID,62.3159,VALID,17.8911,VALID,113,VALID,0.748047,
2014-08-13, 07:07:04,VALID,917.465,VALID,0,VALID,97.7398,VALID,64.6796,VALID,17.8702,VALID,113,VALID,0.942969,
2014-08-13, 07:08:04,VALID,917.461,VALID,0,VALID,97.7398,VALID,67.1507,VALID,17.8911,VALID,114,VALID,1.14688,
2014-08-13, 07:09:04,VALID,917.476,VALID,0,VALID,97.7398,VALID,68.9772,VALID,17.9314,VALID,135,VALID,1.24258,
2014-08-13, 07:10:04,VALID,917.52,VALID,0,VALID,97.7246,VALID,70.8037,VALID,17.9119,VALID,144,VALID,0.744141,
2014-08-13, 07:11:04,VALID,917.486,VALID,0,VALID,97.7322,VALID,73.1674,VALID,17.9301,VALID,144,VALID,0.408984,
2014-08-13, 07:12:04,VALID,917.509,VALID,0,VALID,97.7398,VALID,76.0683,VALID,17.9509,VALID,144,VALID,0.837109,
2014-08-13, 07:13:04,VALID,917.536,VALID,0,VALID,97.7246,VALID,78.5395,VALID,17.9496,VALID,148,VALID,0.869922,
2014-08-13, 07:14:04,VALID,917.548,VALID,0,VALID,97.7398,VALID,79.2916,VALID,18.0289,VALID,148,VALID,0.681641,
2014-08-13, 07:15:04,VALID,917.556,VALID,0,VALID,97.7017,VALID,80.4734,VALID,18.0665,VALID,148,VALID,0.858203,
2014-08-13, 07:16:04,VALID,917.539,VALID,0,VALID,97.7093,VALID,82.1925,VALID,18.086,VALID,148,VALID,0.812891,
2014-08-13, 07:17:04,VALID,917.577,VALID,0,VALID,97.7017,VALID,83.3743,VALID,18.1445,VALID,148,VALID,0.998047,
2014-08-13, 07:18:04,VALID,917.56,VALID,0,VALID,97.7093,VALID,85.9529,VALID,18.1445,VALID,142,VALID,0.872266,
2014-08-13, 07:19:04,VALID,917.583,VALID,0,VALID,97.7093,VALID,87.3497,VALID,18.1431,VALID,142,VALID,0.710547,
2014-08-13, 07:20:04,VALID,917.578,VALID,0,VALID,97.6941,VALID,89.8208,VALID,18.1821,VALID,142,VALID,0.764063,
2014-08-13, 07:21:04,VALID,917.568,VALID,0,VALID,97.7093,VALID,92.3994,VALID,18.2016,VALID,142,VALID,0.886719,
2014-08-13, 07:22:04,VALID,917.557,VALID,0,VALID,97.656,VALID,92.6143,VALID,18.2406,VALID,142,VALID,0.911719,
2014-08-13, 07:23:04,VALID,917.589,VALID,0,VALID,97.6712,VALID,94.5482,VALID,18.2796,VALID,142,VALID,0.512109,
2014-08-13, 07:24:04,VALID,917.611,VALID,0,VALID,97.6941,VALID,94.6557,VALID,18.299,VALID,142,VALID,0.951563,
2014-08-13, 07:25:04,VALID,917.605,VALID,0,VALID,97.6712,VALID,97.1268,VALID,18.3185,VALID,143,VALID,0.761328,
2014-08-13, 07:26:04,VALID,917.628,VALID,0,VALID,97.6788,VALID,98.7384,VALID,18.338,VALID,145,VALID,0.763281,
2014-08-13, 07:27:04,VALID,917.619,VALID,0,VALID,97.6712,VALID,100.35,VALID,18.3965,VALID,148,VALID,0.849609,
2014-08-13, 07:28:04,VALID,917.628,VALID,0,VALID,97.6331,VALID,102.929,VALID,18.455,VALID,148,VALID,0.835547,
2014-08-13, 07:29:04,VALID,917.601,VALID,0,VALID,97.6407,VALID,105.4,VALID,18.4954,VALID,148,VALID,0.946094,
2014-08-13, 07:30:04,VALID,917.629,VALID,0,VALID,97.6178,VALID,109.16,VALID,18.533,VALID,148,VALID,0.75,
2014-08-13, 07:31:04,VALID,917.632,VALID,0,VALID,97.6331,VALID,113.78,VALID,18.572,VALID,148,VALID,0.979688,
2014-08-13, 07:32:04,VALID,917.662,VALID,0,VALID,97.6331,VALID,118.185,VALID,18.6124,VALID,146,VALID,0.826563,
2014-08-13, 07:33:04,VALID,917.671,VALID,0,VALID,97.6255,VALID,119.582,VALID,18.6304,VALID,144,VALID,0.970703,
2014-08-13, 07:34:04,VALID,917.673,VALID,0,VALID,97.6331,VALID,119.689,VALID,18.6708,VALID,151,VALID,0.828516,
2014-08-13, 07:35:04,VALID,917.687,VALID,0,VALID,97.6178,VALID,119.26,VALID,18.6889,VALID,150,VALID,0.762109,
2014-08-13, 07:36:04,VALID,917.709,VALID,0,VALID,97.6255,VALID,118.615,VALID,18.6889,VALID,152,VALID,0.927344,
2014-08-13, 07:37:04,VALID,917.726,VALID,0,VALID,97.6255,VALID,115.177,VALID,18.7084,VALID,145,VALID,0.552734,
2014-08-13, 07:38:04,VALID,917.734,VALID,0,VALID,97.6178,VALID,115.177,VALID,18.7084,VALID,152,VALID,0.750781,
2014-08-13, 07:39:04,VALID,917.727,VALID,0,VALID,97.6331,VALID,115.069,VALID,18.6889,VALID,152,VALID,0.700781,
2014-08-13, 07:40:04,VALID,917.744,VALID,0,VALID,97.6026,VALID,116.681,VALID,18.6485,VALID,151,VALID,0.936719,
2014-08-13, 07:41:04,VALID,917.715,VALID,0,VALID,97.6407,VALID,121.409,VALID,18.6889,VALID,140,VALID,0.863281,
2014-08-13, 07:42:04,VALID,917.743,VALID,0,VALID,97.6331,VALID,126.566,VALID,18.6889,VALID,143,VALID,0.947266,
2014-08-13, 07:43:04,VALID,917.711,VALID,0,VALID,97.6178,VALID,131.938,VALID,18.6875,VALID,132,VALID,0.997656,
2014-08-13, 07:44:04,VALID,917.739,VALID,0,VALID,97.6026,VALID,136.235,VALID,18.7084,VALID,140,VALID,1.08867,
2014-08-13, 07:45:04,VALID,917.736,VALID,0,VALID,97.6102,VALID,140.318,VALID,18.7669,VALID,128,VALID,1.39453,
2014-08-13, 07:46:04,VALID,917.768,VALID,0,VALID,97.595,VALID,140.318,VALID,18.8059,VALID,135,VALID,1.05586,
2014-08-13, 07:47:04,VALID,917.776,VALID,0,VALID,97.6102,VALID,149.558,VALID,18.8477,VALID,133,VALID,1.40078,
2014-08-13, 07:48:04,VALID,917.765,VALID,0,VALID,97.6026,VALID,154.393,VALID,18.8059,VALID,129,VALID,1.31211,
2014-08-13, 07:49:04,VALID,917.784,VALID,0,VALID,97.595,VALID,156.757,VALID,18.8644,VALID,122,VALID,1.23945,
2014-08-13, 07:50:04,VALID,917.757,VALID,0,VALID,97.5873,VALID,169.757,VALID,18.9424,VALID,146,VALID,1.11328,
2014-08-13, 07:51:04,VALID,917.807,VALID,0,VALID,97.5797,VALID,175.451,VALID,18.9633,VALID,144,VALID,1.08047,
2014-08-13, 07:52:04,VALID,917.808,VALID,0,VALID,97.595,VALID,177.063,VALID,18.9229,VALID,140,VALID,1.14258,
2014-08-13, 07:53:04,VALID,917.82,VALID,0,VALID,97.595,VALID,181.79,VALID,18.8839,VALID,150,VALID,1.3957,
2014-08-13, 07:54:04,VALID,917.812,VALID,0,VALID,97.595,VALID,190.386,VALID,18.8644,VALID,142,VALID,1.42422,
2014-08-13, 07:55:04,VALID,917.832,VALID,0,VALID,97.6178,VALID,213.593,VALID,18.8463,VALID,153,VALID,1.37422,
2014-08-13, 07:56:04,VALID,917.819,VALID,0,VALID,97.5873,VALID,218.965,VALID,18.9424,VALID,154,VALID,0.426562,
2014-08-13, 07:57:04,VALID,917.841,VALID,0,VALID,97.5569,VALID,221.221,VALID,19.0998,VALID,125,VALID,0.682813,
2014-08-13, 07:58:04,VALID,917.87,VALID,0,VALID,97.5264,VALID,228.957,VALID,19.2334,VALID,126,VALID,0.814062,
2014-08-13, 07:59:04,VALID,917.87,VALID,0,VALID,97.5111,VALID,233.47,VALID,19.2543,VALID,129,VALID,1.05078,
2014-08-13, 08:00:04,VALID,917.902,VALID,0,VALID,97.5035,VALID,239.701,VALID,19.3533,VALID,140,VALID,0.779297,
2014-08-13, 08:01:04,VALID,917.899,VALID,0,VALID,97.5035,VALID,248.404,VALID,19.2918,VALID,124,VALID,1.42852,
2014-08-13, 08:02:04,VALID,917.912,VALID,0,VALID,97.5035,VALID,254.528,VALID,19.3518,VALID,151,VALID,1.09414,
2014-08-13, 08:03:04,VALID,917.923,VALID,0,VALID,97.5111,VALID,259.363,VALID,19.3323,VALID,141,VALID,1.3293,
2014-08-13, 08:04:04,VALID,917.904,VALID,0,VALID,97.5111,VALID,261.512,VALID,19.4283,VALID,166,VALID,1.52695,
2014-08-13, 08:05:04,VALID,917.935,VALID,0,VALID,97.4959,VALID,263.983,VALID,19.4898,VALID,157,VALID,1.0207,
2014-08-13, 08:06:04,VALID,917.959,VALID,0,VALID,97.5187,VALID,265.38,VALID,19.3908,VALID,159,VALID,1.22305,
2014-08-13, 08:07:04,VALID,917.95,VALID,0,VALID,97.534,VALID,267.206,VALID,19.2723,VALID,141,VALID,1.35469,
2014-08-13, 08:08:04,VALID,917.959,VALID,0,VALID,97.5111,VALID,275.372,VALID,19.3323,VALID,145,VALID,1.24297,
2014-08-13, 08:09:04,VALID,917.957,VALID,0,VALID,97.5187,VALID,283.645,VALID,19.3308,VALID,158,VALID,0.729297,
2014-08-13, 08:10:04,VALID,917.966,VALID,0,VALID,97.5111,VALID,290.843,VALID,19.3908,VALID,156,VALID,1.20742,
2014-08-13, 08:11:04,VALID,917.981,VALID,0,VALID,97.5035,VALID,297.182,VALID,19.4493,VALID,147,VALID,1.19414,
2014-08-13, 08:12:04,VALID,917.942,VALID,0,VALID,97.4654,VALID,295.571,VALID,19.6248,VALID,160,VALID,0.637891,
2014-08-13, 08:13:04,VALID,917.954,VALID,0,VALID,97.5111,VALID,291.38,VALID,19.4478,VALID,162,VALID,1.53477,
2014-08-13, 08:14:04,VALID,917.943,VALID,0,VALID,97.5416,VALID,294.926,VALID,19.2918,VALID,155,VALID,1.35469,
2014-08-13, 08:15:04,VALID,917.963,VALID,0,VALID,97.5111,VALID,295.678,VALID,19.4688,VALID,148,VALID,0.967578,
2014-08-13, 08:16:04,VALID,917.984,VALID,0,VALID,97.4501,VALID,299.224,VALID,19.7223,VALID,127,VALID,0.805469,
2014-08-13, 08:17:04,VALID,917.959,VALID,0,VALID,97.4806,VALID,300.943,VALID,19.6623,VALID,146,VALID,0.941016,
2014-08-13, 08:18:04,VALID,917.952,VALID,0,VALID,97.4349,VALID,294.819,VALID,19.8573,VALID,132,VALID,0.594531,
2014-08-13, 08:19:04,VALID,917.985,VALID,0,VALID,97.4273,VALID,301.48,VALID,19.8558,VALID,138,VALID,1.14102,
2014-08-13, 08:20:04,VALID,918.005,VALID,0,VALID,97.4425,VALID,317.918,VALID,19.7988,VALID,152,VALID,1.12539,
2014-08-13, 08:21:04,VALID,917.991,VALID,0,VALID,97.4273,VALID,324.15,VALID,19.8963,VALID,158,VALID,1.03437,
2014-08-13, 08:22:04,VALID,918.039,VALID,0,VALID,97.4044,VALID,327.91,VALID,20.0118,VALID,138,VALID,0.655469,
2014-08-13, 08:23:04,VALID,918.04,VALID,0,VALID,97.4501,VALID,330.704,VALID,19.8573,VALID,157,VALID,1.20781,
2014-08-13, 08:24:04,VALID,918.045,VALID,0,VALID,97.4196,VALID,338.332,VALID,20.0133,VALID,153,VALID,0.648047,
2014-08-13, 08:25:04,VALID,918.037,VALID,0,VALID,97.3891,VALID,337.15,VALID,20.1483,VALID,108,VALID,0.712891,
2014-08-13, 08:26:04,VALID,918.044,VALID,0,VALID,97.3739,VALID,341.018,VALID,20.2278,VALID,161,VALID,1.21445,
2014-08-13, 08:27:04,VALID,918.028,VALID,0,VALID,97.3891,VALID,336.398,VALID,20.3253,VALID,153,VALID,0.404297,
2014-08-13, 08:28:04,VALID,918.03,VALID,0,VALID,97.3815,VALID,339.836,VALID,20.2848,VALID,147,VALID,0.741797,
2014-08-13, 08:29:04,VALID,918.032,VALID,0,VALID,97.3663,VALID,324.795,VALID,20.3433,VALID,145,VALID,0.867969,
2014-08-13, 08:30:04,VALID,918.039,VALID,0,VALID,97.3663,VALID,313.298,VALID,20.3807,VALID,159,VALID,0.755469,
2014-08-13, 08:31:04,VALID,918.041,VALID,0,VALID,97.3815,VALID,315.017,VALID,20.4213,VALID,160,VALID,0.555469,
2014-08-13, 08:32:04,VALID,918.046,VALID,0,VALID,97.3663,VALID,329.522,VALID,20.5009,VALID,136,VALID,0.734766,
2014-08-13, 08:33:04,VALID,918.062,VALID,0,VALID,97.3358,VALID,341.77,VALID,20.5789,VALID,139,VALID,0.644922,
2014-08-13, 08:34:04,VALID,918.035,VALID,0,VALID,97.3434,VALID,341.663,VALID,20.5399,VALID,166,VALID,0.825391,
2014-08-13, 08:35:04,VALID,918.078,VALID,0,VALID,97.3739,VALID,348.109,VALID,20.4798,VALID,160,VALID,0.716406,
2014-08-13, 08:36:04,VALID,918.09,VALID,0,VALID,97.3815,VALID,348.647,VALID,20.5399,VALID,164,VALID,0.709766,
2014-08-13, 08:37:04,VALID,918.103,VALID,0,VALID,97.3891,VALID,329.844,VALID,20.4618,VALID,164,VALID,0.944141,
2014-08-13, 08:38:04,VALID,918.082,VALID,0,VALID,97.3586,VALID,314.158,VALID,20.5594,VALID,165,VALID,0.676172,
2014-08-13, 08:39:04,VALID,918.062,VALID,0,VALID,97.351,VALID,325.869,VALID,20.6569,VALID,164,VALID,0.409375,
2014-08-13, 08:40:04,VALID,918.117,VALID,0,VALID,97.3434,VALID,354.126,VALID,20.7349,VALID,181,VALID,1.16562,
2014-08-13, 08:41:04,VALID,918.078,VALID,0,VALID,97.3129,VALID,369.598,VALID,20.8699,VALID,152,VALID,0.692578,
2014-08-13, 08:42:04,VALID,918.082,VALID,0,VALID,97.2672,VALID,381.201,VALID,21.0259,VALID,159,VALID,0.823438,
2014-08-13, 08:43:04,VALID,918.092,VALID,0,VALID,97.2595,VALID,389.152,VALID,21.1039,VALID,170,VALID,1.2207,
2014-08-13, 08:44:04,VALID,918.056,VALID,0,VALID,97.3434,VALID,387.218,VALID,20.9284,VALID,158,VALID,1.35508,
2014-08-13, 08:45:04,VALID,918.063,VALID,0,VALID,97.3434,VALID,354.556,VALID,20.8504,VALID,167,VALID,1.42578,
2014-08-13, 08:46:04,VALID,918.049,VALID,0,VALID,97.3434,VALID,357.242,VALID,20.7723,VALID,158,VALID,1.2707,
2014-08-13, 08:47:04,VALID,918.07,VALID,0,VALID,97.3053,VALID,332.638,VALID,20.8113,VALID,173,VALID,1.33359,
2014-08-13, 08:48:04,VALID,918.073,VALID,0,VALID,97.29,VALID,291.166,VALID,20.8699,VALID,182,VALID,1.04805,
2014-08-13, 08:49:04,VALID,918.082,VALID,0,VALID,97.2595,VALID,289.017,VALID,21.0064,VALID,180,VALID,0.45,
2014-08-13, 08:50:04,VALID,918.097,VALID,0,VALID,97.2443,VALID,289.017,VALID,21.0828,VALID,144,VALID,0.719141,
2014-08-13, 08:51:04,VALID,918.108,VALID,0,VALID,97.2367,VALID,259.578,VALID,21.1039,VALID,147,VALID,0.721484,
2014-08-13, 08:52:04,VALID,918.12,VALID,0,VALID,97.2367,VALID,272.471,VALID,21.0844,VALID,144,VALID,0.949609,
2014-08-13, 08:53:04,VALID,918.12,VALID,0,VALID,97.1757,VALID,263.446,VALID,21.1218,VALID,175,VALID,0.868359,
2014-08-13, 08:54:04,VALID,918.151,VALID,0,VALID,97.1223,VALID,261.189,VALID,21.1429,VALID,156,VALID,0.873828,
2014-08-13, 08:55:04,VALID,918.147,VALID,0,VALID,97.0537,VALID,291.488,VALID,21.1819,VALID,168,VALID,1.02109,
2014-08-13, 08:56:04,VALID,918.159,VALID,0,VALID,97.0003,VALID,336.183,VALID,21.299,VALID,165,VALID,0.368359,
2014-08-13, 08:57:04,VALID,918.158,VALID,0,VALID,96.9241,VALID,352.3,VALID,21.4339,VALID,166,VALID,0.658984,
2014-08-13, 08:58:04,VALID,918.178,VALID,0,VALID,96.8631,VALID,406.45,VALID,21.4924,VALID,186,VALID,0.820313,
2014-08-13, 08:59:04,VALID,918.213,VALID,0,VALID,96.7183,VALID,402.152,VALID,21.4534,VALID,171,VALID,1.04609,
2014-08-13, 09:00:04,VALID,918.222,VALID,0,VALID,96.5353,VALID,384.532,VALID,21.4746,VALID,158,VALID,1.33906,
2014-08-13, 09:01:04,VALID,918.229,VALID,0,VALID,96.2761,VALID,385.499,VALID,21.4144,VALID,171,VALID,0.764063,
2014-08-13, 09:02:04,VALID,918.229,VALID,0,VALID,96.1084,VALID,395.383,VALID,21.5136,VALID,182,VALID,0.995703,
2014-08-13, 09:03:04,VALID,918.228,VALID,0,VALID,95.9483,VALID,337.043,VALID,21.6501,VALID,182,VALID,0.465234,
2014-08-13, 09:04:04,VALID,918.221,VALID,0,VALID,95.6891,VALID,293.314,VALID,21.6875,VALID,212,VALID,0.840625,
2014-08-13, 09:05:04,VALID,918.263,VALID,0,VALID,95.2698,VALID,332.423,VALID,21.707,VALID,198,VALID,0.820703,
2014-08-13, 09:06:04,VALID,918.244,VALID,0,VALID,95.247,VALID,363.366,VALID,21.8681,VALID,190,VALID,0.508203,
2014-08-13, 09:07:04,VALID,918.253,VALID,0,VALID,94.8734,VALID,409.888,VALID,21.9021,VALID,189,VALID,0.745313,
2014-08-13, 09:08:04,VALID,918.3,VALID,0,VALID,92.594,VALID,419.021,VALID,21.9801,VALID,196,VALID,1.11523,
2014-08-13, 09:09:04,VALID,918.305,VALID,0,VALID,91.3514,VALID,414.83,VALID,22.0598,VALID,210,VALID,0.949609,
2014-08-13, 09:10:04,VALID,918.315,VALID,0,VALID,90.2079,VALID,373.358,VALID,22.0989,VALID,195,VALID,0.882813,
2014-08-13, 09:11:04,VALID,918.318,VALID,0,VALID,89.9868,VALID,342.308,VALID,22.1167,VALID,195,VALID,0.44375,
2014-08-13, 09:12:04,VALID,918.326,VALID,0,VALID,89.8343,VALID,353.267,VALID,22.2354,VALID,195,VALID,0.406641,
2014-08-13, 09:13:04,VALID,918.361,VALID,0,VALID,89.1177,VALID,403.656,VALID,22.333,VALID,193,VALID,0.7375,
2014-08-13, 09:14:04,VALID,918.328,VALID,0,VALID,88.2639,VALID,383.135,VALID,22.3347,VALID,186,VALID,0.338672,
2014-08-13, 09:15:04,VALID,918.321,VALID,0,VALID,86.6554,VALID,364.548,VALID,22.372,VALID,150,VALID,1.01484,
2014-08-13, 09:16:04,VALID,918.305,VALID,0,VALID,86.1141,VALID,377.763,VALID,22.3508,VALID,150,VALID,0.527344,
2014-08-13, 09:17:04,VALID,918.282,VALID,0,VALID,86.2894,VALID,393.772,VALID,22.372,VALID,150,VALID,0.427734,
2014-08-13, 09:18:04,VALID,918.29,VALID,0,VALID,86.7773,VALID,406.665,VALID,22.4891,VALID,150,VALID,0.757813,
2014-08-13, 09:19:04,VALID,918.285,VALID,0,VALID,85.9769,VALID,432.988,VALID,22.5672,VALID,150,VALID,0.991016,
2014-08-13, 09:20:04,VALID,918.272,VALID,0,VALID,85.8778,VALID,458.022,VALID,22.5867,VALID,150,VALID,0.628516,
2014-08-13, 09:21:04,VALID,918.263,VALID,0,VALID,85.6491,VALID,470.7,VALID,22.663,VALID,156,VALID,1.01836,
2014-08-13, 09:22:04,VALID,918.268,VALID,0,VALID,86.0226,VALID,494.659,VALID,22.7801,VALID,161,VALID,0.280859,
2014-08-13, 09:23:04,VALID,918.275,VALID,0,VALID,85.5652,VALID,500.246,VALID,22.8599,VALID,141,VALID,0.741016,
2014-08-13, 09:24:04,VALID,918.261,VALID,0,VALID,84.1473,VALID,476.931,VALID,22.8972,VALID,180,VALID,1.21953,
2014-08-13, 09:25:04,VALID,918.251,VALID,0,VALID,84.3302,VALID,536.024,VALID,22.9167,VALID,179,VALID,0.877734,
2014-08-13, 09:26:04,VALID,918.253,VALID,0,VALID,84.3912,VALID,538.28,VALID,22.9948,VALID,180,VALID,0.316797,
2014-08-13, 09:27:04,VALID,918.269,VALID,0,VALID,83.5374,VALID,543.008,VALID,23.0143,VALID,130,VALID,0.839063,
2014-08-13, 09:28:04,VALID,918.273,VALID,0,VALID,83.202,VALID,545.371,VALID,23.0338,VALID,135,VALID,0.464453,
2014-08-13, 09:29:04,VALID,918.276,VALID,0,VALID,83.7813,VALID,573.413,VALID,23.1314,VALID,135,VALID,0.489453,
2014-08-13, 09:30:04,VALID,918.292,VALID,0,VALID,80.8235,VALID,563.529,VALID,23.0533,VALID,170,VALID,1.23359,
2014-08-13, 09:31:04,VALID,918.291,VALID,0,VALID,81.7154,VALID,559.768,VALID,22.9948,VALID,160,VALID,1.13867,
2014-08-13, 09:32:04,VALID,918.29,VALID,0,VALID,81.1894,VALID,581.257,VALID,22.8582,VALID,168,VALID,0.951953,
2014-08-13, 09:33:04,VALID,918.313,VALID,0,VALID,81.8602,VALID,611.985,VALID,22.8387,VALID,153,VALID,1.33086,
2014-08-13, 09:34:04,VALID,918.336,VALID,0,VALID,82.6683,VALID,612.522,VALID,22.8564,VALID,153,VALID,0.299219,
2014-08-13, 09:35:04,VALID,918.357,VALID,0,VALID,82.7293,VALID,616.39,VALID,23.0533,VALID,165,VALID,0.848828,
2014-08-13, 09:36:04,VALID,918.352,VALID,0,VALID,81.7154,VALID,537.85,VALID,23.1509,VALID,145,VALID,0.553906,
2014-08-13, 09:37:04,VALID,918.375,VALID,0,VALID,80.9149,VALID,401.508,VALID,23.1509,VALID,145,VALID,0.463281,
2014-08-13, 09:38:04,VALID,918.399,VALID,0,VALID,80.9607,VALID,523.238,VALID,23.1899,VALID,145,VALID,0.169531,
2014-08-13, 09:39:04,VALID,918.399,VALID,0,VALID,82.6683,VALID,627.027,VALID,23.3053,VALID,135,VALID,1.03555,
2014-08-13, 09:40:04,VALID,918.376,VALID,0,VALID,82.4244,VALID,649.697,VALID,23.4827,VALID,135,VALID,0.636719,
2014-08-13, 09:41:04,VALID,918.354,VALID,0,VALID,81.906,VALID,626.704,VALID,23.7187,VALID,135,VALID,0.861719,
2014-08-13, 09:42:04,VALID,918.432,VALID,0,VALID,80.3813,VALID,611.555,VALID,23.8926,VALID,135,VALID,0.45625,
2014-08-13, 09:43:04,VALID,918.407,VALID,0,VALID,77.9647,VALID,589.745,VALID,23.9512,VALID,135,VALID,0.739453,
2014-08-13, 09:44:04,VALID,918.418,VALID,0,VALID,79.7104,VALID,634.655,VALID,24.0292,VALID,136,VALID,0.572656,
2014-08-13, 09:45:04,VALID,918.413,VALID,0,VALID,74.2826,VALID,670.97,VALID,24.1073,VALID,135,VALID,1.44375,
2014-08-13, 09:46:04,VALID,918.412,VALID,0,VALID,77.3929,VALID,604.464,VALID,23.9512,VALID,135,VALID,0.661719,
2014-08-13, 09:47:04,VALID,918.417,VALID,0,VALID,77.7665,VALID,573.306,VALID,24.0292,VALID,135,VALID,0.728906,
2014-08-13, 09:48:04,VALID,918.42,VALID,0,VALID,78.2696,VALID,354.233,VALID,24.2049,VALID,135,VALID,0.544922,
2014-08-13, 09:49:04,VALID,918.422,VALID,0,VALID,75.1593,VALID,361.325,VALID,24.1269,VALID,135,VALID,1.10273,
2014-08-13, 09:50:04,VALID,918.437,VALID,0,VALID,76.4476,VALID,641.424,VALID,23.8926,VALID,135,VALID,0.850781,
2014-08-13, 09:51:04,VALID,918.414,VALID,0,VALID,77.8884,VALID,631.109,VALID,23.8926,VALID,135,VALID,1.16758,
2014-08-13, 09:52:04,VALID,918.433,VALID,0,VALID,74.9077,VALID,631.647,VALID,24.0097,VALID,135,VALID,1.32891,
2014-08-13, 09:53:04,VALID,918.396,VALID,0,VALID,74.153,VALID,653.135,VALID,24.0683,VALID,135,VALID,1.08125,
2014-08-13, 09:54:04,VALID,918.371,VALID,0,VALID,75.3651,VALID,637.556,VALID,24.1659,VALID,135,VALID,1.59219,
2014-08-13, 09:55:04,VALID,918.362,VALID,0,VALID,72.0718,VALID,596.513,VALID,24.2226,VALID,135,VALID,0.978516,
2014-08-13, 09:56:04,VALID,918.366,VALID,0,VALID,74.7552,VALID,590.282,VALID,24.2812,VALID,135,VALID,0.4375,
2014-08-13, 09:57:04,VALID,918.35,VALID,0,VALID,73.9624,VALID,569.975,VALID,24.5173,VALID,135,VALID,0.124219,
2014-08-13, 09:58:04,VALID,918.311,VALID,0,VALID,74.1987,VALID,557.19,VALID,24.7516,VALID,135,VALID,0.425781,
2014-08-13, 09:59:04,VALID,918.318,VALID,0,VALID,70.6843,VALID,541.181,VALID,24.7497,VALID,221,VALID,1.29453,
2014-08-13, 10:00:04,VALID,918.289,VALID,0,VALID,73.5126,VALID,517.651,VALID,24.6521,VALID,253,VALID,1.16641,
2014-08-13, 10:01:04,VALID,918.308,VALID,0,VALID,69.8839,VALID,487.138,VALID,24.5545,VALID,253,VALID,0.791797,
2014-08-13, 10:02:04,VALID,918.312,VALID,0,VALID,69.7238,VALID,463.501,VALID,24.5155,VALID,253,VALID,0.805078,
2014-08-13, 10:03:04,VALID,918.313,VALID,0,VALID,70.2879,VALID,394.416,VALID,24.5368,VALID,253,VALID,0.428516,
2014-08-13, 10:04:04,VALID,918.291,VALID,0,VALID,71.5381,VALID,473.171,VALID,24.5155,VALID,253,VALID,0.470703,
2014-08-13, 10:05:04,VALID,918.277,VALID,0,VALID,73.6498,VALID,379.804,VALID,24.4959,VALID,253,VALID,0.766797,
2014-08-13, 10:06:04,VALID,918.3,VALID,0,VALID,74.6942,VALID,402.26,VALID,24.535,VALID,253,VALID,0.235547,
2014-08-13, 10:07:04,VALID,918.319,VALID,0,VALID,73.5278,VALID,436.104,VALID,24.5545,VALID,253,VALID,0.408203,
2014-08-13, 10:08:04,VALID,918.347,VALID,0,VALID,74.5265,VALID,476.824,VALID,24.5954,VALID,253,VALID,0.332812,
2014-08-13, 10:09:04,VALID,918.363,VALID,0,VALID,73.1314,VALID,431.806,VALID,24.6912,VALID,253,VALID,0.828516,
2014-08-13, 10:10:04,VALID,918.37,VALID,0,VALID,73.2458,VALID,452.435,VALID,24.7497,VALID,253,VALID,0.814062,
2014-08-13, 10:11:04,VALID,918.355,VALID,0,VALID,70.9816,VALID,456.84,VALID,24.8669,VALID,253,VALID,0.741016,
2014-08-13, 10:12:04,VALID,918.347,VALID,0,VALID,70.1354,VALID,427.079,VALID,24.9255,VALID,253,VALID,0.793359,
2014-08-13, 10:13:04,VALID,918.378,VALID,0,VALID,71.2866,VALID,435.029,VALID,24.7693,VALID,253,VALID,0.542578,
2014-08-13, 10:14:04,VALID,918.37,VALID,0,VALID,71.2103,VALID,462.964,VALID,24.6502,VALID,253,VALID,0.667188,
2014-08-13, 10:15:04,VALID,918.382,VALID,0,VALID,71.6296,VALID,409.136,VALID,24.7107,VALID,253,VALID,0.355469,
2014-08-13, 10:16:04,VALID,918.389,VALID,0,VALID,71.5,VALID,382.168,VALID,24.9255,VALID,253,VALID,0.199219,
2014-08-13, 10:17:04,VALID,918.381,VALID,0,VALID,70.5318,VALID,377.763,VALID,24.9255,VALID,253,VALID,0.730078,
2014-08-13, 10:18:04,VALID,918.361,VALID,0,VALID,72.5292,VALID,374.218,VALID,24.8474,VALID,253,VALID,0.369531,
2014-08-13, 10:19:04,VALID,918.386,VALID,0,VALID,70.9511,VALID,400.648,VALID,24.8064,VALID,253,VALID,0.677344,
2014-08-13, 10:20:04,VALID,918.374,VALID,0,VALID,70.1735,VALID,443.195,VALID,24.7302,VALID,253,VALID,0.934766,
2014-08-13, 10:21:04,VALID,918.372,VALID,0,VALID,71.1341,VALID,448.997,VALID,24.5935,VALID,253,VALID,0.0410156,
2014-08-13, 10:22:04,VALID,918.386,VALID,0,VALID,71.9574,VALID,413.971,VALID,24.6131,VALID,253,VALID,0.404297,
2014-08-13, 10:23:04,VALID,918.374,VALID,0,VALID,70.1735,VALID,459.096,VALID,24.6521,VALID,253,VALID,0.35625,
2014-08-13, 10:24:04,VALID,918.359,VALID,0,VALID,70.9206,VALID,453.831,VALID,24.6326,VALID,253,VALID,0.51875,
2014-08-13, 10:25:04,VALID,918.359,VALID,0,VALID,71.965,VALID,495.411,VALID,24.6521,VALID,253,VALID,1.32578,
2014-08-13, 10:26:04,VALID,918.368,VALID,0,VALID,71.9117,VALID,477.254,VALID,24.7107,VALID,253,VALID,0.626172,
2014-08-13, 10:27:04,VALID,918.374,VALID,0,VALID,74.0005,VALID,481.444,VALID,24.7088,VALID,253,VALID,0.456641,
2014-08-13, 10:28:04,VALID,918.337,VALID,0,VALID,70.5318,VALID,475.964,VALID,24.7107,VALID,253,VALID,0.439453,
2014-08-13, 10:29:04,VALID,918.339,VALID,0,VALID,73.0018,VALID,487.461,VALID,24.6521,VALID,253,VALID,0.528906,
2014-08-13, 10:30:04,VALID,918.318,VALID,0,VALID,73.0247,VALID,494.337,VALID,24.7107,VALID,253,VALID,0.819531,
2014-08-13, 10:31:04,VALID,918.262,VALID,0,VALID,72.6359,VALID,334.035,VALID,24.7283,VALID,253,VALID,0.730859,
2014-08-13, 10:32:04,VALID,918.233,VALID,0,VALID,72.1861,VALID,351.01,VALID,24.8278,VALID,253,VALID,1.1707,
2014-08-13, 10:33:04,VALID,918.24,VALID,0,VALID,70.57,VALID,306.315,VALID,24.8102,VALID,253,VALID,1.42344,
2014-08-13, 10:34:04,VALID,918.204,VALID,0,VALID,70.4251,VALID,257.751,VALID,24.7321,VALID,253,VALID,0.744531,
2014-08-13, 10:35:04,VALID,918.153,VALID,0,VALID,71.683,VALID,247.974,VALID,24.5759,VALID,253,VALID,0.265234,
2014-08-13, 10:36:04,VALID,918.169,VALID,0,VALID,72.3615,VALID,247.007,VALID,24.4978,VALID,253,VALID,0.925,